{"data":{"norad_id":38775,"intl_designator":"2012-050B","name":"BEIDOU-2 M6 (C14)","alt_names":[],"object_type":"PAYLOAD","status":"ACTIVE","operator":null,"country":"PRC","launch_date":"2012-09-18","launch_site_code":"XICLF","launch_vehicle":null,"mission":null,"orbit_class":"UNKNOWN","rcs_meters":10,"size_class":null,"mass_kg":null,"dimensions":null,"purposes":["nav"],"wikipedia_slug":null,"has_3d_model":false,"image_url":null,"decayed_at":null,"tle_current":{"epoch":"2026-09-19T08:02:17.178720Z","epoch_age_seconds":115123,"freshness":"FRESH","line1":"1 38775U 12050B   26262.33492105 -.00000013  00000+0  00000+0 0  9996","line2":"2 38775  56.6311  59.7868 0010791   3.8690 356.1589  1.86231049 95062","mean_motion":1.86231049,"eccentricity":0.0010791,"inclination_deg":56.6311,"raan_deg":59.7868,"arg_perigee_deg":3.869,"mean_anomaly_deg":356.1589,"bstar":0,"rev_number":9506,"period_min":773.23303913731,"perigee_km":21497.933106081,"apogee_km":21558.160231675,"semimajor_km":27906.183668878,"source":"CELESTRAK","updated_at":"2026-09-20T09:00:46.672729Z"}}}